Weather History for KFOE - October, 2013

Change the Weather History Date:

Tuesday, October 15, 2013

  Actual Average Record
Temperature  
Mean Temperature 53 °F -  
Max Temperature 61 °F 68 °F 89 °F (1950)
Min Temperature 45 °F 45 °F 31 °F (1952)
Degree Days  
Heating Degree Days 12    
Growing Degree Days 3 (Base 50)    
Moisture  
Dew Point 43 °F    
Average Humidity 69    
Maximum Humidity 94    
Minimum Humidity 46    
Precipitation  
Precipitation 0.05 in - - ()
Sea Level Pressure  
Sea Level Pressure 30.00 in    
Wind  
Wind Speed 12 mph (WNW)    
Max Wind Speed 22 mph    
Max Gust Speed 29 mph    
Visibility 10 miles    
Events Rain    
Averages and records for this station are not official NWS values.
T = Trace of Precipitation, MM = Missing Value Source: NWS Daily Summary

Daily Weather History Graph

Daily Weather History Graph

Search for Another Location

Airport or City:

Trip Planner

Search our weather history database for the weather conditions in past years. The results will help you decide how hot, cold, wet, or windy it might be!

Date:

Astronomy

Oct. 15, 2013 Rise Set
Actual Time 7:32 AM CDT 6:43 PM CDT
Civil Twilight 7:05 AM CDT 7:10 PM CDT
Nautical Twilight 6:34 AM CDT 7:41 PM CDT
Astronomical Twilight 6:03 AM CDT 8:12 PM CDT
Moon 4:48 PM CDT (10/15) 3:57 AM CDT (10/15)
Length of Visible Light 12h 05m
Length of Day
11h 11m
Waxing Gibbous, 88% of the Moon is Illuminated
Oct 15
Waxing Gibbous
Oct 18
Full
Oct 26
Last Quarter
Nov 3
New
Nov 9
First Quarter

Hourly Weather History & Observations

Time (CDT) Temp. Windchill Dew Point Humidity Pressure Visibility Wind Dir Wind Speed Gust Speed Precip Events Conditions
12:53 AM 61.0 °F - 59.0 °F 93% 29.86 in 9.0 mi South 9.2 mph - 0.02 in Rain Light Rain
1:53 AM 59.0 °F - 55.9 °F 90% 29.90 in 10.0 mi SW 8.1 mph - 0.02 in Rain Light Rain
2:00 AM 59.0 °F - 55.4 °F 88% 29.90 in 10.0 mi WSW 8.1 mph - 0.00 in Rain Light Rain
2:09 AM 57.2 °F - 55.4 °F 94% 29.90 in 10.0 mi SW 8.1 mph - 0.00 in   Overcast
2:53 AM 57.9 °F - 55.0 °F 90% 29.90 in 10.0 mi NW 12.7 mph 17.3 mph 0.01 in   Overcast
3:31 AM 55.4 °F - 50.0 °F 82% 29.92 in 10.0 mi WNW 11.5 mph - N/A   Overcast
3:38 AM 55.4 °F - 51.8 °F 88% 29.92 in 10.0 mi WNW 10.4 mph - N/A   Overcast
3:53 AM 54.0 °F - 46.0 °F 75% 29.93 in 10.0 mi WNW 15.0 mph - N/A   Mostly Cloudy
4:53 AM 51.1 °F - 44.1 °F 77% 29.94 in 10.0 mi WNW 13.8 mph - N/A   Clear
5:53 AM 48.9 °F - 42.1 °F 77% 29.95 in 10.0 mi WNW 16.1 mph - N/A   Clear
6:53 AM 46.9 °F - 39.0 °F 74% 29.98 in 10.0 mi WNW 10.4 mph - N/A   Clear
7:53 AM 45.0 °F 41.2 °F 39.0 °F 80% 30.00 in 10.0 mi WNW 6.9 mph - N/A   Clear
8:53 AM 46.9 °F - 39.9 °F 77% 30.02 in 10.0 mi WNW 10.4 mph - N/A   Clear
9:53 AM 50.0 °F - 39.9 °F 68% 30.02 in 10.0 mi WNW 16.1 mph - N/A   Clear
10:53 AM 53.1 °F - 37.9 °F 57% 30.03 in 10.0 mi WNW 18.4 mph 24.2 mph N/A   Clear
11:53 AM 54.0 °F - 37.9 °F 55% 30.03 in 10.0 mi NW 12.7 mph - N/A   Clear
12:53 PM 57.0 °F - 37.9 °F 49% 30.03 in 10.0 mi NW 13.8 mph 28.8 mph N/A   Clear
1:53 PM 57.9 °F - 37.9 °F 47% 30.01 in 10.0 mi NW 21.9 mph 25.3 mph N/A   Clear
2:53 PM 59.0 °F - 37.9 °F 46% 30.01 in 10.0 mi WNW 15.0 mph - N/A   Clear
3:53 PM 59.0 °F - 37.9 °F 46% 30.01 in 10.0 mi NW 17.3 mph 23.0 mph N/A   Clear
4:53 PM 59.0 °F - 37.9 °F 46% 30.02 in 10.0 mi WNW 18.4 mph 24.2 mph N/A   Clear
5:53 PM 55.9 °F - 37.0 °F 49% 30.03 in 10.0 mi NW 16.1 mph - N/A   Partly Cloudy
6:53 PM 52.0 °F - 37.0 °F 57% 30.06 in 10.0 mi NNW 10.4 mph - N/A   Clear
7:53 PM 48.9 °F - 37.0 °F 64% 30.09 in 10.0 mi NW 8.1 mph - N/A   Clear
8:53 PM 48.0 °F - 37.0 °F 66% 30.10 in 10.0 mi NW 10.4 mph - N/A   Partly Cloudy
9:53 PM 48.9 °F - 37.0 °F 64% 30.10 in 10.0 mi NW 11.5 mph - N/A   Overcast
10:53 PM 50.0 °F - 35.1 °F 57% 30.11 in 10.0 mi NW 18.4 mph 26.5 mph N/A   Overcast
11:53 PM 48.0 °F - 36.0 °F 63% 30.11 in 10.0 mi NW 13.8 mph - N/A   Mostly Cloudy